Year,Month,Day,Hour,Minute,Value (Times are PST for temperature in C)
2015,07,04,00,00,20.70
2015,07,04,00,01,20.80
2015,07,04,00,02,20.80
2015,07,04,00,03,20.80
2015,07,04,00,04,20.80
2015,07,04,00,05,20.80
2015,07,04,00,06,20.80
2015,07,04,00,07,20.80
2015,07,04,00,08,20.80
2015,07,04,00,09,20.80
2015,07,04,00,10,20.80
2015,07,04,00,11,20.80
2015,07,04,00,12,20.80
2015,07,04,00,13,20.70
2015,07,04,00,14,20.70
2015,07,04,00,15,20.60
2015,07,04,00,16,20.50
2015,07,04,00,17,20.40
2015,07,04,00,18,20.30
2015,07,04,00,19,20.20
2015,07,04,00,20,20.00
2015,07,04,00,21,19.90
2015,07,04,00,22,19.90
2015,07,04,00,23,19.80
2015,07,04,00,24,19.70
2015,07,04,00,25,19.60
2015,07,04,00,26,19.60
2015,07,04,00,27,19.60
2015,07,04,00,28,19.50
2015,07,04,00,29,19.50
2015,07,04,00,30,19.40
2015,07,04,00,31,19.40
2015,07,04,00,32,19.40
2015,07,04,00,33,19.40
2015,07,04,00,34,19.40
2015,07,04,00,35,19.40
2015,07,04,00,36,19.40
2015,07,04,00,37,19.40
2015,07,04,00,38,19.50
2015,07,04,00,39,19.50
2015,07,04,00,40,19.50
2015,07,04,00,41,19.50
2015,07,04,00,42,19.50
2015,07,04,00,43,19.50
2015,07,04,00,44,19.30
2015,07,04,00,45,19.20
2015,07,04,00,46,19.10
2015,07,04,00,47,18.80
2015,07,04,00,48,18.60
2015,07,04,00,49,18.50
2015,07,04,00,50,18.40
2015,07,04,00,51,18.30
2015,07,04,00,52,18.20
2015,07,04,00,53,18.00
2015,07,04,00,54,17.90
2015,07,04,00,55,17.80
2015,07,04,00,56,17.70
2015,07,04,00,57,17.60
2015,07,04,00,58,17.60
2015,07,04,00,59,17.70
2015,07,04,01,00,17.70
2015,07,04,01,01,17.70
2015,07,04,01,02,17.70
2015,07,04,01,03,17.60
2015,07,04,01,04,17.50
2015,07,04,01,05,17.60
2015,07,04,01,06,17.70
2015,07,04,01,07,17.80
2015,07,04,01,08,17.80
2015,07,04,01,09,17.80
2015,07,04,01,10,17.70
2015,07,04,01,11,17.70
2015,07,04,01,12,17.70
2015,07,04,01,13,17.60
2015,07,04,01,14,17.50
2015,07,04,01,15,17.40
2015,07,04,01,16,17.30
2015,07,04,01,17,17.20
2015,07,04,01,18,17.20
2015,07,04,01,19,17.20
2015,07,04,01,20,17.20
2015,07,04,01,21,17.10
2015,07,04,01,22,17.10
2015,07,04,01,23,17.00
2015,07,04,01,24,17.00
2015,07,04,01,25,17.10
2015,07,04,01,26,17.10
2015,07,04,01,27,17.20
2015,07,04,01,28,17.20
2015,07,04,01,29,17.20
2015,07,04,01,30,17.30
2015,07,04,01,31,17.30
2015,07,04,01,32,17.30
2015,07,04,01,33,17.40
2015,07,04,01,34,17.50
2015,07,04,01,35,17.70
2015,07,04,01,36,17.80
2015,07,04,01,37,18.00
2015,07,04,01,38,18.30
2015,07,04,01,39,18.40
2015,07,04,01,40,18.60
2015,07,04,01,41,18.70
2015,07,04,01,42,18.80
2015,07,04,01,43,18.90
2015,07,04,01,44,19.00
2015,07,04,01,45,19.10
2015,07,04,01,46,19.20
2015,07,04,01,47,19.20
2015,07,04,01,48,19.20
2015,07,04,01,49,19.10
2015,07,04,01,50,19.10
2015,07,04,01,51,19.10
2015,07,04,01,52,19.20
2015,07,04,01,53,19.20
2015,07,04,01,54,19.20
2015,07,04,01,55,19.20
2015,07,04,01,56,19.20
2015,07,04,01,57,19.20
2015,07,04,01,58,19.20
2015,07,04,01,59,19.20
2015,07,04,02,00,19.10
2015,07,04,02,01,19.10
2015,07,04,02,02,19.00
2015,07,04,02,03,18.90
2015,07,04,02,04,18.90
2015,07,04,02,05,18.80
2015,07,04,02,06,18.80
2015,07,04,02,07,18.80
2015,07,04,02,08,18.80
2015,07,04,02,09,18.80
2015,07,04,02,10,18.80
2015,07,04,02,11,18.80
2015,07,04,02,12,18.70
2015,07,04,02,13,18.60
2015,07,04,02,14,18.40
2015,07,04,02,15,18.30
2015,07,04,02,16,18.20
2015,07,04,02,17,18.00
2015,07,04,02,18,17.90
2015,07,04,02,19,17.70
2015,07,04,02,20,17.60
2015,07,04,02,21,17.50
2015,07,04,02,22,17.40
2015,07,04,02,23,17.30
2015,07,04,02,24,17.20
2015,07,04,02,25,17.10
2015,07,04,02,26,17.00
2015,07,04,02,27,16.80
2015,07,04,02,28,16.70
2015,07,04,02,29,16.60
2015,07,04,02,30,16.50
2015,07,04,02,31,16.50
2015,07,04,02,32,16.50
2015,07,04,02,33,16.40
2015,07,04,02,34,16.40
2015,07,04,02,35,16.30
2015,07,04,02,36,16.30
2015,07,04,02,37,16.30
2015,07,04,02,38,16.20
2015,07,04,02,39,16.20
2015,07,04,02,40,16.20
2015,07,04,02,41,16.20
2015,07,04,02,42,16.20
2015,07,04,02,43,16.20
2015,07,04,02,44,16.20
2015,07,04,02,45,16.10
2015,07,04,02,46,16.00
2015,07,04,02,47,15.90
2015,07,04,02,48,15.90
2015,07,04,02,49,15.80
2015,07,04,02,50,15.70
2015,07,04,02,51,15.70
2015,07,04,02,52,15.70
2015,07,04,02,53,15.60
2015,07,04,02,54,15.60
2015,07,04,02,55,15.60
2015,07,04,02,56,15.70
2015,07,04,02,57,15.70
2015,07,04,02,58,15.80
2015,07,04,02,59,15.90
2015,07,04,03,00,16.00
2015,07,04,03,01,16.00
2015,07,04,03,02,16.10
2015,07,04,03,03,16.10
2015,07,04,03,04,16.20
2015,07,04,03,05,16.20
2015,07,04,03,06,16.30
2015,07,04,03,07,16.40
2015,07,04,03,08,16.60
2015,07,04,03,09,16.70
2015,07,04,03,10,16.80
2015,07,04,03,11,16.90
2015,07,04,03,12,16.90
2015,07,04,03,13,17.00
2015,07,04,03,14,17.00
2015,07,04,03,15,17.00
2015,07,04,03,16,17.10
2015,07,04,03,17,17.10
2015,07,04,03,18,17.10
2015,07,04,03,19,17.20
2015,07,04,03,20,17.20
2015,07,04,03,21,17.20
2015,07,04,03,22,17.20
2015,07,04,03,23,17.20
2015,07,04,03,24,17.20
2015,07,04,03,25,17.10
2015,07,04,03,26,17.10
2015,07,04,03,27,17.00
2015,07,04,03,28,17.00
2015,07,04,03,29,16.90
2015,07,04,03,30,16.80
2015,07,04,03,31,16.70
2015,07,04,03,32,16.60
2015,07,04,03,33,16.50
2015,07,04,03,34,16.30
2015,07,04,03,35,16.20
2015,07,04,03,36,16.00
2015,07,04,03,37,15.90
2015,07,04,03,38,15.90
2015,07,04,03,39,15.80
2015,07,04,03,40,15.70
2015,07,04,03,41,15.60
2015,07,04,03,42,15.60
2015,07,04,03,43,15.50
2015,07,04,03,44,15.30
2015,07,04,03,45,15.20
2015,07,04,03,46,15.10
2015,07,04,03,47,14.90
2015,07,04,03,48,14.80
2015,07,04,03,49,14.70
2015,07,04,03,50,14.70
2015,07,04,03,51,14.60
2015,07,04,03,52,14.50
2015,07,04,03,53,14.40
2015,07,04,03,54,14.30
2015,07,04,03,55,14.30
2015,07,04,03,56,14.30
2015,07,04,03,57,14.20
2015,07,04,03,58,14.20
2015,07,04,03,59,14.20
2015,07,04,04,00,14.20
2015,07,04,04,01,14.10
2015,07,04,04,02,14.00
2015,07,04,04,03,14.00
2015,07,04,04,04,13.90
2015,07,04,04,05,13.80
2015,07,04,04,06,13.80
2015,07,04,04,07,13.80
2015,07,04,04,08,13.80
2015,07,04,04,09,13.80
2015,07,04,04,10,13.80
2015,07,04,04,11,13.80
2015,07,04,04,12,13.80
2015,07,04,04,13,13.80
2015,07,04,04,14,13.80
2015,07,04,04,15,13.80
2015,07,04,04,16,13.80
2015,07,04,04,17,13.80
2015,07,04,04,18,13.80
2015,07,04,04,19,13.80
2015,07,04,04,20,13.80
2015,07,04,04,21,13.80
2015,07,04,04,22,13.80
2015,07,04,04,23,13.80
2015,07,04,04,24,13.80
2015,07,04,04,25,13.80
2015,07,04,04,26,13.80
2015,07,04,04,27,13.80
2015,07,04,04,28,13.70
2015,07,04,04,29,13.70
2015,07,04,04,30,13.70
2015,07,04,04,31,13.70
2015,07,04,04,32,13.70
2015,07,04,04,33,13.70
2015,07,04,04,34,13.70
2015,07,04,04,35,13.70
2015,07,04,04,36,13.80
2015,07,04,04,37,13.80
2015,07,04,04,38,13.80
2015,07,04,04,39,13.80
2015,07,04,04,40,13.80
2015,07,04,04,41,13.80
2015,07,04,04,42,13.80
2015,07,04,04,43,13.80
2015,07,04,04,44,13.80
2015,07,04,04,45,13.80
2015,07,04,04,46,13.80
2015,07,04,04,47,13.80
2015,07,04,04,48,13.80
2015,07,04,04,49,13.80
2015,07,04,04,50,13.80
2015,07,04,04,51,13.80
2015,07,04,04,52,13.80
2015,07,04,04,53,13.80
2015,07,04,04,54,13.80
2015,07,04,04,55,13.90
2015,07,04,04,56,13.90
2015,07,04,04,57,13.90
2015,07,04,04,58,13.90
2015,07,04,04,59,13.90
2015,07,04,05,00,13.80
2015,07,04,05,01,13.80
2015,07,04,05,02,13.70
2015,07,04,05,03,13.60
2015,07,04,05,04,13.60
2015,07,04,05,05,13.50
2015,07,04,05,06,13.40
2015,07,04,05,07,13.30
2015,07,04,05,08,13.30
2015,07,04,05,09,13.20
2015,07,04,05,10,13.20
2015,07,04,05,11,13.10
2015,07,04,05,12,13.00
2015,07,04,05,13,12.90
2015,07,04,05,14,13.00
2015,07,04,05,15,13.00
2015,07,04,05,16,13.10
2015,07,04,05,17,13.20
2015,07,04,05,18,13.30
2015,07,04,05,19,13.30
2015,07,04,05,20,13.20
2015,07,04,05,21,13.20
2015,07,04,05,22,13.20
2015,07,04,05,23,13.20
2015,07,04,05,24,13.20
2015,07,04,05,25,13.10
2015,07,04,05,26,13.00
2015,07,04,05,27,12.90
2015,07,04,05,28,12.80
2015,07,04,05,29,12.80
2015,07,04,05,30,12.70
2015,07,04,05,31,12.70
2015,07,04,05,32,12.60
2015,07,04,05,33,12.60
2015,07,04,05,34,12.60
2015,07,04,05,35,12.50
2015,07,04,05,36,12.50
2015,07,04,05,37,12.40
2015,07,04,05,38,12.40
2015,07,04,05,39,12.50
2015,07,04,05,40,12.50
2015,07,04,05,41,12.40
2015,07,04,05,42,12.40
2015,07,04,05,43,12.40
2015,07,04,05,44,12.40
2015,07,04,05,45,12.50
2015,07,04,05,46,12.50
2015,07,04,05,47,12.60
2015,07,04,05,48,12.70
2015,07,04,05,49,12.80
2015,07,04,05,50,12.80
2015,07,04,05,51,12.80
2015,07,04,05,52,12.90
2015,07,04,05,53,12.90
2015,07,04,05,54,13.00
2015,07,04,05,55,13.10
2015,07,04,05,56,13.20
2015,07,04,05,57,13.30
2015,07,04,05,58,13.30
2015,07,04,05,59,13.50
2015,07,04,06,00,13.80
2015,07,04,06,01,14.00
2015,07,04,06,02,14.20
2015,07,04,06,03,14.40
2015,07,04,06,04,14.60
2015,07,04,06,05,14.70
2015,07,04,06,06,14.80
2015,07,04,06,07,14.80
2015,07,04,06,08,14.80
2015,07,04,06,09,14.80
2015,07,04,06,10,14.80
2015,07,04,06,11,14.80
2015,07,04,06,12,14.80
2015,07,04,06,13,14.70
2015,07,04,06,14,14.70
2015,07,04,06,15,14.70
2015,07,04,06,16,14.80
2015,07,04,06,17,14.80
2015,07,04,06,18,14.80
2015,07,04,06,19,14.80
2015,07,04,06,20,14.90
2015,07,04,06,21,14.90
2015,07,04,06,22,15.00
2015,07,04,06,23,15.10
2015,07,04,06,24,15.10
2015,07,04,06,25,15.10
2015,07,04,06,26,15.10
2015,07,04,06,27,15.10
2015,07,04,06,28,15.10
2015,07,04,06,29,15.10
2015,07,04,06,30,15.10
2015,07,04,06,31,15.10
2015,07,04,06,32,15.10
2015,07,04,06,33,15.20
2015,07,04,06,34,15.30
2015,07,04,06,35,15.30
2015,07,04,06,36,15.40
2015,07,04,06,37,15.30
2015,07,04,06,38,15.30
2015,07,04,06,39,15.20
2015,07,04,06,40,15.10
2015,07,04,06,41,15.30
2015,07,04,06,42,15.40
2015,07,04,06,43,15.40
2015,07,04,06,44,15.50
2015,07,04,06,45,15.50
2015,07,04,06,46,15.60
2015,07,04,06,47,15.70
2015,07,04,06,48,15.80
2015,07,04,06,49,15.80
2015,07,04,06,50,15.90
2015,07,04,06,51,16.00
2015,07,04,06,52,16.10
2015,07,04,06,53,16.20
2015,07,04,06,54,16.30
2015,07,04,06,55,16.40
2015,07,04,06,56,16.50
2015,07,04,06,57,16.60
2015,07,04,06,58,16.70
2015,07,04,06,59,16.70
2015,07,04,07,00,16.80
2015,07,04,07,01,16.80
2015,07,04,07,02,16.90
2015,07,04,07,03,16.90
2015,07,04,07,04,16.90
2015,07,04,07,05,17.00
2015,07,04,07,06,17.10
2015,07,04,07,07,17.20
2015,07,04,07,08,17.30
2015,07,04,07,09,17.50
2015,07,04,07,10,17.60
2015,07,04,07,11,17.80
2015,07,04,07,12,17.90
2015,07,04,07,13,18.10
2015,07,04,07,14,18.20
2015,07,04,07,15,18.40
2015,07,04,07,16,18.50
2015,07,04,07,17,18.70
2015,07,04,07,18,18.70
2015,07,04,07,19,18.70
2015,07,04,07,20,18.70
2015,07,04,07,21,18.70
2015,07,04,07,22,18.60
2015,07,04,07,23,18.60
2015,07,04,07,24,18.60
2015,07,04,07,25,18.50
2015,07,04,07,26,18.50
2015,07,04,07,27,18.50
2015,07,04,07,28,18.60
2015,07,04,07,29,18.60
2015,07,04,07,30,18.60
2015,07,04,07,31,18.70
2015,07,04,07,32,18.70
2015,07,04,07,33,18.70
2015,07,04,07,34,18.80
2015,07,04,07,35,18.80
2015,07,04,07,36,18.80
2015,07,04,07,37,18.80
2015,07,04,07,38,18.80
2015,07,04,07,39,18.80
2015,07,04,07,40,18.80
2015,07,04,07,41,18.80
2015,07,04,07,42,18.80
2015,07,04,07,43,18.80
2015,07,04,07,44,18.70
2015,07,04,07,45,18.60
2015,07,04,07,46,18.60
2015,07,04,07,47,18.50
2015,07,04,07,48,18.50
2015,07,04,07,49,18.40
2015,07,04,07,50,18.40
2015,07,04,07,51,18.40
2015,07,04,07,52,18.40
2015,07,04,07,53,18.40
2015,07,04,07,54,18.40
2015,07,04,07,55,18.50
2015,07,04,07,56,18.50
2015,07,04,07,57,18.50
2015,07,04,07,58,18.60
2015,07,04,07,59,18.60
2015,07,04,08,00,18.60
2015,07,04,08,01,18.60
2015,07,04,08,02,18.60
2015,07,04,08,03,18.70
2015,07,04,08,04,18.70
2015,07,04,08,05,18.70
2015,07,04,08,06,18.70
2015,07,04,08,07,18.80
2015,07,04,08,08,18.80
2015,07,04,08,09,18.80
2015,07,04,08,10,18.80
2015,07,04,08,11,18.80
2015,07,04,08,12,18.80
2015,07,04,08,13,18.90
2015,07,04,08,14,18.90
2015,07,04,08,15,18.80
2015,07,04,08,16,18.80
2015,07,04,08,17,18.80
2015,07,04,08,18,18.70
2015,07,04,08,19,18.70
2015,07,04,08,20,18.70
2015,07,04,08,21,18.70
2015,07,04,08,22,18.70
2015,07,04,08,23,18.70
2015,07,04,08,24,18.80
2015,07,04,08,25,18.90
2015,07,04,08,26,18.90
2015,07,04,08,27,18.90
2015,07,04,08,28,19.00
2015,07,04,08,29,19.00
2015,07,04,08,30,19.00
2015,07,04,08,31,19.10
2015,07,04,08,32,19.10
2015,07,04,08,33,19.20
2015,07,04,08,34,19.30
2015,07,04,08,35,19.40
2015,07,04,08,36,19.40
2015,07,04,08,37,19.50
2015,07,04,08,38,19.60
2015,07,04,08,39,19.70
2015,07,04,08,40,19.80
2015,07,04,08,41,19.90
2015,07,04,08,42,20.00
2015,07,04,08,43,20.10
2015,07,04,08,44,20.20
2015,07,04,08,45,20.30
2015,07,04,08,46,20.40
2015,07,04,08,47,20.40
2015,07,04,08,48,20.40
2015,07,04,08,49,20.30
2015,07,04,08,50,20.30
2015,07,04,08,51,20.30
2015,07,04,08,52,20.40
2015,07,04,08,53,20.40
2015,07,04,08,54,20.40
2015,07,04,08,55,20.40
2015,07,04,08,56,20.40
2015,07,04,08,57,20.40
2015,07,04,08,58,20.40
2015,07,04,08,59,20.40
2015,07,04,09,00,20.30
2015,07,04,09,01,20.40
2015,07,04,09,02,20.40
2015,07,04,09,03,20.40
2015,07,04,09,04,20.50
2015,07,04,09,05,20.60
2015,07,04,09,06,20.60
2015,07,04,09,07,20.70
2015,07,04,09,08,20.70
2015,07,04,09,09,20.60
2015,07,04,09,10,20.60
2015,07,04,09,11,20.50
2015,07,04,09,12,20.50
2015,07,04,09,13,20.50
2015,07,04,09,14,20.50
2015,07,04,09,15,20.60
2015,07,04,09,16,20.60
2015,07,04,09,17,20.60
2015,07,04,09,18,20.50
2015,07,04,09,19,20.50
2015,07,04,09,20,20.60
2015,07,04,09,21,20.60
2015,07,04,09,22,20.70
2015,07,04,09,23,20.70
2015,07,04,09,24,20.70
2015,07,04,09,25,20.60
2015,07,04,09,26,20.60
2015,07,04,09,27,20.60
2015,07,04,09,28,20.70
2015,07,04,09,29,20.60
2015,07,04,09,30,20.60
2015,07,04,09,31,20.60
2015,07,04,09,32,20.60
2015,07,04,09,33,20.50
2015,07,04,09,34,20.50
2015,07,04,09,35,20.50
2015,07,04,09,36,20.60
2015,07,04,09,37,20.60
2015,07,04,09,38,20.70
2015,07,04,09,39,20.70
2015,07,04,09,40,20.80
2015,07,04,09,41,20.80
2015,07,04,09,42,20.80
2015,07,04,09,43,20.80
2015,07,04,09,44,20.80
2015,07,04,09,45,20.80
2015,07,04,09,46,20.80
2015,07,04,09,47,20.90
2015,07,04,09,48,20.90
2015,07,04,09,49,20.90
2015,07,04,09,50,21.00
2015,07,04,09,51,21.00
2015,07,04,09,52,21.10
2015,07,04,09,53,21.20
2015,07,04,09,54,21.20
2015,07,04,09,55,21.20
2015,07,04,09,56,21.20
2015,07,04,09,57,21.20
2015,07,04,09,58,21.20
2015,07,04,09,59,21.20
2015,07,04,10,00,21.10
2015,07,04,10,01,21.10
2015,07,04,10,02,21.10
2015,07,04,10,03,21.20
2015,07,04,10,04,21.20
2015,07,04,10,05,21.10
2015,07,04,10,06,21.00
2015,07,04,10,07,21.00
2015,07,04,10,08,20.90
2015,07,04,10,09,20.90
2015,07,04,10,10,20.80
2015,07,04,10,11,20.70
2015,07,04,10,12,20.60
2015,07,04,10,13,20.50
2015,07,04,10,14,20.40
2015,07,04,10,15,20.30
2015,07,04,10,16,20.20
2015,07,04,10,17,20.20
2015,07,04,10,18,20.10
2015,07,04,10,19,20.10
2015,07,04,10,20,20.10
2015,07,04,10,21,20.10
2015,07,04,10,22,20.10
2015,07,04,10,23,20.10
2015,07,04,10,24,20.10
2015,07,04,10,25,20.00
2015,07,04,10,26,20.00
2015,07,04,10,27,20.00
2015,07,04,10,28,20.00
2015,07,04,10,29,20.10
2015,07,04,10,30,20.10
2015,07,04,10,31,20.00
2015,07,04,10,32,20.00
2015,07,04,10,33,20.00
2015,07,04,10,34,20.00
2015,07,04,10,35,19.90
2015,07,04,10,36,19.90
2015,07,04,10,37,20.00
2015,07,04,10,38,20.10
2015,07,04,10,39,20.20
2015,07,04,10,40,20.20
2015,07,04,10,41,20.30
2015,07,04,10,42,20.30
2015,07,04,10,43,20.40
2015,07,04,10,44,20.40
2015,07,04,10,45,20.40
2015,07,04,10,46,20.50
2015,07,04,10,47,20.50
2015,07,04,10,48,20.60
2015,07,04,10,49,20.60
2015,07,04,10,50,20.60
2015,07,04,10,51,20.50
2015,07,04,10,52,20.40
2015,07,04,10,53,20.40
2015,07,04,10,54,20.40
2015,07,04,10,55,20.40
2015,07,04,10,56,20.40
2015,07,04,10,57,20.40
2015,07,04,10,58,20.40
2015,07,04,10,59,20.40
2015,07,04,11,00,20.40
2015,07,04,11,01,20.40
2015,07,04,11,02,20.50
2015,07,04,11,03,20.60
2015,07,04,11,04,20.50
2015,07,04,11,05,20.50
2015,07,04,11,06,20.40
2015,07,04,11,07,20.30
2015,07,04,11,08,20.30
2015,07,04,11,09,20.50
2015,07,04,11,10,20.60
2015,07,04,11,11,20.70
2015,07,04,11,12,20.80
2015,07,04,11,13,20.80
2015,07,04,11,14,20.80
2015,07,04,11,15,20.80
2015,07,04,11,16,20.80
2015,07,04,11,17,20.80
2015,07,04,11,18,20.80
2015,07,04,11,19,20.80
2015,07,04,11,20,20.80
2015,07,04,11,21,20.70
2015,07,04,11,22,20.70
2015,07,04,11,23,20.60
2015,07,04,11,24,20.60
2015,07,04,11,25,20.60
2015,07,04,11,26,20.60
2015,07,04,11,27,20.60
2015,07,04,11,28,20.60
2015,07,04,11,29,20.60
2015,07,04,11,30,20.60
2015,07,04,11,31,20.70
2015,07,04,11,32,20.70
2015,07,04,11,33,20.70
2015,07,04,11,34,20.70
2015,07,04,11,35,20.70
2015,07,04,11,36,20.70
2015,07,04,11,37,20.70
2015,07,04,11,38,20.60
2015,07,04,11,39,20.60
2015,07,04,11,40,20.60
2015,07,04,11,41,20.60
2015,07,04,11,42,20.60
2015,07,04,11,43,20.70
2015,07,04,11,44,20.70
2015,07,04,11,45,20.70
2015,07,04,11,46,20.70
2015,07,04,11,47,20.60
2015,07,04,11,48,20.60
2015,07,04,11,49,20.70
2015,07,04,11,50,20.70
2015,07,04,11,51,20.80
2015,07,04,11,52,20.80
2015,07,04,11,53,20.90
2015,07,04,11,54,20.90
2015,07,04,11,55,20.90
2015,07,04,11,56,20.90
2015,07,04,11,57,20.90
2015,07,04,11,58,20.90
2015,07,04,11,59,20.90
2015,07,04,12,00,20.90
2015,07,04,12,01,21.00
2015,07,04,12,02,21.00
2015,07,04,12,03,21.10
2015,07,04,12,04,21.20
2015,07,04,12,05,21.20
2015,07,04,12,06,21.20
2015,07,04,12,07,21.10
2015,07,04,12,08,21.10
2015,07,04,12,09,21.10
2015,07,04,12,10,21.10
2015,07,04,12,11,21.10
2015,07,04,12,12,21.10
2015,07,04,12,13,21.10
2015,07,04,12,14,21.10
2015,07,04,12,15,21.10
2015,07,04,12,16,21.10
2015,07,04,12,17,21.10
2015,07,04,12,18,21.10
2015,07,04,12,19,21.00
2015,07,04,12,20,20.90
2015,07,04,12,21,20.90
2015,07,04,12,22,20.80
2015,07,04,12,23,20.90
2015,07,04,12,24,21.00
2015,07,04,12,25,21.20
2015,07,04,12,26,21.20
2015,07,04,12,27,21.20
2015,07,04,12,28,21.20
2015,07,04,12,29,21.10
2015,07,04,12,30,21.00
2015,07,04,12,31,21.00
2015,07,04,12,32,21.00
2015,07,04,12,33,21.00
2015,07,04,12,34,21.00
2015,07,04,12,35,21.00
2015,07,04,12,36,21.00
2015,07,04,12,37,21.10
2015,07,04,12,38,21.10
2015,07,04,12,39,21.00
2015,07,04,12,40,21.00
2015,07,04,12,41,21.00
2015,07,04,12,42,21.00
2015,07,04,12,43,21.10
2015,07,04,12,44,21.20
2015,07,04,12,45,21.30
2015,07,04,12,46,21.40
2015,07,04,12,47,21.40
2015,07,04,12,48,21.40
2015,07,04,12,49,21.30
2015,07,04,12,50,21.30
2015,07,04,12,51,21.30
2015,07,04,12,52,21.40
2015,07,04,12,53,21.40
2015,07,04,12,54,21.50
2015,07,04,12,55,21.50
2015,07,04,12,56,21.60
2015,07,04,12,57,21.70
2015,07,04,12,58,21.80
2015,07,04,12,59,21.80
2015,07,04,13,00,21.90
2015,07,04,13,01,22.00
2015,07,04,13,02,22.10
2015,07,04,13,03,22.10
2015,07,04,13,04,22.20
2015,07,04,13,05,22.20
2015,07,04,13,06,22.30
2015,07,04,13,07,22.40
2015,07,04,13,08,22.40
2015,07,04,13,09,22.40
2015,07,04,13,10,22.50
2015,07,04,13,11,22.50
2015,07,04,13,12,22.40
2015,07,04,13,13,22.50
2015,07,04,13,14,22.50
2015,07,04,13,15,22.60
2015,07,04,13,16,22.70
2015,07,04,13,17,22.80
2015,07,04,13,18,22.80
2015,07,04,13,19,22.90
2015,07,04,13,20,22.90
2015,07,04,13,21,23.00
2015,07,04,13,22,23.10
2015,07,04,13,23,23.10
2015,07,04,13,24,23.10
2015,07,04,13,25,23.10
2015,07,04,13,26,23.20
2015,07,04,13,27,23.20
2015,07,04,13,28,23.30
2015,07,04,13,29,23.40
2015,07,04,13,30,23.50
2015,07,04,13,31,23.60
2015,07,04,13,32,23.60
2015,07,04,13,33,23.50
2015,07,04,13,34,23.50
2015,07,04,13,35,23.50
2015,07,04,13,36,23.50
2015,07,04,13,37,23.60
2015,07,04,13,38,23.70
2015,07,04,13,39,23.80
2015,07,04,13,40,24.10
2015,07,04,13,41,24.20
2015,07,04,13,42,24.30
2015,07,04,13,43,24.50
2015,07,04,13,44,24.60
2015,07,04,13,45,24.80
2015,07,04,13,46,24.80
2015,07,04,13,47,24.70
2015,07,04,13,48,24.50
2015,07,04,13,49,24.50
2015,07,04,13,50,24.40
2015,07,04,13,51,24.40
2015,07,04,13,52,24.50
2015,07,04,13,53,24.60
2015,07,04,13,54,24.70
2015,07,04,13,55,24.60
2015,07,04,13,56,24.50
2015,07,04,13,57,24.40
2015,07,04,13,58,24.30
2015,07,04,13,59,24.40
2015,07,04,14,00,24.50
2015,07,04,14,01,24.60
2015,07,04,14,02,24.70
2015,07,04,14,03,24.80
2015,07,04,14,04,24.80
2015,07,04,14,05,24.80
2015,07,04,14,06,24.80
2015,07,04,14,07,24.80
2015,07,04,14,08,24.80
2015,07,04,14,09,24.90
2015,07,04,14,10,25.00
2015,07,04,14,11,25.00
2015,07,04,14,12,25.00
2015,07,04,14,13,25.00
2015,07,04,14,14,24.90
2015,07,04,14,15,24.90
2015,07,04,14,16,24.90
2015,07,04,14,17,25.00
2015,07,04,14,18,25.10
2015,07,04,14,19,25.10
2015,07,04,14,20,25.20
2015,07,04,14,21,25.20
2015,07,04,14,22,25.30
2015,07,04,14,23,25.40
2015,07,04,14,24,25.40
2015,07,04,14,25,25.50
2015,07,04,14,26,25.50
2015,07,04,14,27,25.50
2015,07,04,14,28,25.60
2015,07,04,14,29,25.60
2015,07,04,14,30,25.60
2015,07,04,14,31,25.50
2015,07,04,14,32,25.40
2015,07,04,14,33,25.40
2015,07,04,14,34,25.40
2015,07,04,14,35,25.50
2015,07,04,14,36,25.60
2015,07,04,14,37,25.60
2015,07,04,14,38,25.70
2015,07,04,14,39,25.70
2015,07,04,14,40,25.70
2015,07,04,14,41,25.70
2015,07,04,14,42,25.80
2015,07,04,14,43,25.70
2015,07,04,14,44,25.80
2015,07,04,14,45,25.80
2015,07,04,14,46,25.90
2015,07,04,14,47,26.00
2015,07,04,14,48,26.10
2015,07,04,14,49,26.20
2015,07,04,14,50,26.30
2015,07,04,14,51,26.30
2015,07,04,14,52,26.30
2015,07,04,14,53,26.40
2015,07,04,14,54,26.40
2015,07,04,14,55,26.40
2015,07,04,14,56,26.50
2015,07,04,14,57,26.50
2015,07,04,14,58,26.40
2015,07,04,14,59,26.40
2015,07,04,15,00,26.40
2015,07,04,15,01,26.30
2015,07,04,15,02,26.40
2015,07,04,15,03,26.40
2015,07,04,15,04,26.50
2015,07,04,15,05,26.50
2015,07,04,15,06,26.50
2015,07,04,15,07,26.50
2015,07,04,15,08,26.40
2015,07,04,15,09,26.50
2015,07,04,15,10,26.50
2015,07,04,15,11,26.60
2015,07,04,15,12,26.50
2015,07,04,15,13,26.50
2015,07,04,15,14,26.60
2015,07,04,15,15,26.60
2015,07,04,15,16,26.70
2015,07,04,15,17,26.70
2015,07,04,15,18,26.80
2015,07,04,15,19,26.80
2015,07,04,15,20,26.70
2015,07,04,15,21,26.60
2015,07,04,15,22,26.60
2015,07,04,15,23,26.70
2015,07,04,15,24,26.70
2015,07,04,15,25,26.70
2015,07,04,15,26,26.70
2015,07,04,15,27,26.70
2015,07,04,15,28,26.80
2015,07,04,15,29,26.80
2015,07,04,15,30,26.90
2015,07,04,15,31,27.00
2015,07,04,15,32,27.10
2015,07,04,15,33,27.20
2015,07,04,15,34,27.30
2015,07,04,15,35,27.20
2015,07,04,15,36,27.20
2015,07,04,15,37,27.20
2015,07,04,15,38,27.20
2015,07,04,15,39,27.30
2015,07,04,15,40,27.30
2015,07,04,15,41,27.30
2015,07,04,15,42,27.30
2015,07,04,15,43,27.20
2015,07,04,15,44,27.10
2015,07,04,15,45,26.90
2015,07,04,15,46,26.90
2015,07,04,15,47,26.80
2015,07,04,15,48,26.80
2015,07,04,15,49,26.90
2015,07,04,15,50,26.90
2015,07,04,15,51,27.00
2015,07,04,15,52,27.10
2015,07,04,15,53,27.10
2015,07,04,15,54,27.20
2015,07,04,15,55,27.30
2015,07,04,15,56,27.40
2015,07,04,15,57,27.40
2015,07,04,15,58,27.40
2015,07,04,15,59,27.50
2015,07,04,16,00,27.50
2015,07,04,16,01,27.70
2015,07,04,16,02,27.80
2015,07,04,16,03,27.90
2015,07,04,16,04,28.00
2015,07,04,16,05,28.10
2015,07,04,16,06,28.20
2015,07,04,16,07,28.30
2015,07,04,16,08,28.30
2015,07,04,16,09,28.40
2015,07,04,16,10,28.40
2015,07,04,16,11,28.40
2015,07,04,16,12,28.40
2015,07,04,16,13,28.30
2015,07,04,16,14,28.30
2015,07,04,16,15,28.30
2015,07,04,16,16,28.40
2015,07,04,16,17,28.50
2015,07,04,16,18,28.50
2015,07,04,16,19,28.50
2015,07,04,16,20,28.40
2015,07,04,16,21,28.40
2015,07,04,16,22,28.40
2015,07,04,16,23,28.30
2015,07,04,16,24,28.20
2015,07,04,16,25,28.20
2015,07,04,16,26,28.20
2015,07,04,16,27,28.20
2015,07,04,16,28,28.10
2015,07,04,16,29,27.90
2015,07,04,16,30,27.80
2015,07,04,16,31,27.80
2015,07,04,16,32,27.90
2015,07,04,16,33,27.90
2015,07,04,16,34,28.00
2015,07,04,16,35,28.00
2015,07,04,16,36,28.00
2015,07,04,16,37,28.10
2015,07,04,16,38,28.10
2015,07,04,16,39,28.20
2015,07,04,16,40,28.20
2015,07,04,16,41,28.20
2015,07,04,16,42,28.20
2015,07,04,16,43,28.20
2015,07,04,16,44,28.20
2015,07,04,16,45,28.30
2015,07,04,16,46,28.30
2015,07,04,16,47,28.30
2015,07,04,16,48,28.30
2015,07,04,16,49,28.30
2015,07,04,16,50,28.30
2015,07,04,16,51,28.20
2015,07,04,16,52,28.10
2015,07,04,16,53,28.10
2015,07,04,16,54,28.00
2015,07,04,16,55,27.90
2015,07,04,16,56,27.90
2015,07,04,16,57,27.90
2015,07,04,16,58,27.90
2015,07,04,16,59,27.90
2015,07,04,17,00,27.90
2015,07,04,17,01,27.90
2015,07,04,17,02,27.80
2015,07,04,17,03,27.80
2015,07,04,17,04,27.80
2015,07,04,17,05,27.80
2015,07,04,17,06,27.90
2015,07,04,17,07,27.90
2015,07,04,17,08,27.90
2015,07,04,17,09,27.90
2015,07,04,17,10,27.90
2015,07,04,17,11,28.00
2015,07,04,17,12,28.10
2015,07,04,17,13,28.10
2015,07,04,17,14,28.10
2015,07,04,17,15,28.00
2015,07,04,17,16,27.90
2015,07,04,17,17,27.90
2015,07,04,17,18,27.80
2015,07,04,17,19,27.80